Data No.,UTC Date,UTC Time,Latitude,Longitude,Course(deg),Temp(degC)
5414,2013/5/1,17:45:00,18-21.9400N,119-59.8200E,231,30.842
5415,2013/5/1,17:46:00,18-21.8000N,119-59.6500E,230,30.833
5416,2013/5/1,17:47:00,18-21.6400N,119-59.4700E,228,30.824
5417,2013/5/1,17:48:00,18-21.5000N,119-59.3000E,230,30.816
5418,2013/5/1,17:49:00,18-21.3600N,119-59.1200E,230,30.808
5419,2013/5/1,17:50:00,18-21.2100N,119-58.9400E,230,30.8
5420,2013/5/1,17:51:00,18-21.0700N,119-58.7500E,229,30.791
5421,2013/5/1,17:52:00,18-20.9200N,119-58.5700E,230,30.784
5422,2013/5/1,17:53:00,18-20.7800N,119-58.3800E,230,30.78
5423,2013/5/1,17:54:00,18-20.6400N,119-58.2100E,230,30.781
5424,2013/5/1,17:55:00,18-20.5000N,119-58.0300E,230,30.781
5425,2013/5/1,17:56:00,18-20.3600N,119-57.8500E,229,30.781
5426,2013/5/1,17:57:00,18-20.2200N,119-57.6700E,228,30.788
5427,2013/5/1,17:58:00,18-20.0800N,119-57.4900E,230,30.801
5428,2013/5/1,17:59:00,18-19.9300N,119-57.3200E,228,30.811
5429,2013/5/1,18:00:00,18-19.8000N,119-57.1400E,230,30.819
5430,2013/5/1,18:01:00,18-19.6500N,119-56.9600E,229,30.83
5431,2013/5/1,18:02:00,18-19.5100N,119-56.7900E,228,30.839
5432,2013/5/1,18:03:00,18-19.3700N,119-56.6100E,229,30.851
5433,2013/5/1,18:04:00,18-19.2200N,119-56.4300E,229,30.866
5434,2013/5/1,18:05:00,18-19.0800N,119-56.2600E,230,30.881
5435,2013/5/1,18:06:00,18-18.9400N,119-56.0800E,229,30.89
5436,2013/5/1,18:07:00,18-18.8000N,119-55.9000E,229,30.894
5437,2013/5/1,18:08:00,18-18.6600N,119-55.7200E,229,30.915
5438,2013/5/1,18:09:00,18-18.5100N,119-55.5500E,229,30.961
5439,2013/5/1,18:10:00,18-18.3700N,119-55.3700E,229,31.011
5440,2013/5/1,18:11:00,18-18.2300N,119-55.1900E,230,31.043
5441,2013/5/1,18:12:00,18-18.0800N,119-55.0100E,228,31.059
5442,2013/5/1,18:13:00,18-17.9400N,119-54.8400E,229,31.068
5443,2013/5/1,18:14:00,18-17.7900N,119-54.6600E,228,31.076
5444,2013/5/1,18:15:00,18-17.6500N,119-54.4800E,230,31.082
5445,2013/5/1,18:16:00,18-17.5000N,119-54.3000E,229,31.084
5446,2013/5/1,18:17:00,18-17.3600N,119-54.1200E,229,31.082
5447,2013/5/1,18:18:00,18-17.2100N,119-53.9400E,228,31.079
5448,2013/5/1,18:19:00,18-17.0600N,119-53.7700E,226,31.074
5449,2013/5/1,18:20:00,18-16.9200N,119-53.5900E,228,31.068
5450,2013/5/1,18:21:00,18-16.7700N,119-53.4100E,229,31.066
5451,2013/5/1,18:22:00,18-16.6200N,119-53.2300E,229,31.062
5452,2013/5/1,18:23:00,18-16.4700N,119-53.0400E,229,31.058
5453,2013/5/1,18:24:00,18-16.3200N,119-52.8600E,228,31.054
5454,2013/5/1,18:25:00,18-16.1700N,119-52.6800E,228,31.048
5455,2013/5/1,18:26:00,18-16.0300N,119-52.5000E,229,31.039
5456,2013/5/1,18:27:00,18-15.8800N,119-52.3200E,228,31.03
5457,2013/5/1,18:28:00,18-15.7300N,119-52.1400E,229,31.026
5458,2013/5/1,18:29:00,18-15.5800N,119-51.9500E,228,31.032
5459,2013/5/1,18:30:00,18-15.4300N,119-51.7700E,229,31.044
5460,2013/5/1,18:31:00,18-15.2800N,119-51.5800E,229,31.05
5461,2013/5/1,18:32:00,18-15.1400N,119-51.4200E,227,31.045
5462,2013/5/1,18:33:00,18-14.9700N,119-51.2200E,228,31.041
5463,2013/5/1,18:34:00,18-14.8500N,119-51.0600E,229,31.038
5464,2013/5/1,18:35:00,18-14.7000N,119-50.8800E,230,31.028
5465,2013/5/1,18:36:00,18-14.5500N,119-50.6900E,228,31.01
5466,2013/5/1,18:37:00,18-14.4000N,119-50.5100E,229,30.984
5467,2013/5/1,18:38:00,18-14.2500N,119-50.3300E,228,30.963
5468,2013/5/1,18:39:00,18-14.1000N,119-50.1500E,229,30.951
5469,2013/5/1,18:40:00,18-13.9500N,119-49.9700E,229,30.944
5470,2013/5/1,18:41:00,18-13.8100N,119-49.7900E,230,30.932
5471,2013/5/1,18:42:00,18-13.6600N,119-49.6000E,229,30.922
5472,2013/5/1,18:43:00,18-13.5200N,119-49.4200E,229,30.915
5473,2013/5/1,18:44:00,18-13.3700N,119-49.2400E,228,30.921
5474,2013/5/1,18:45:00,18-13.2200N,119-49.0600E,229,30.929
5475,2013/5/1,18:46:00,18-13.0700N,119-48.8700E,229,30.937
5476,2013/5/1,18:47:00,18-12.9200N,119-48.6900E,228,30.937
5477,2013/5/1,18:48:00,18-12.7700N,119-48.5200E,228,30.937
5478,2013/5/1,18:49:00,18-12.6100N,119-48.3400E,228,30.929
5479,2013/5/1,18:50:00,18-12.4400N,119-48.1300E,227,30.914
5480,2013/5/1,18:51:00,18-12.2900N,119-47.9500E,228,30.907
5481,2013/5/1,18:52:00,18-12.1300N,119-47.7700E,227,30.905
5482,2013/5/1,18:53:00,18-11.9700N,119-47.5800E,228,30.903
5483,2013/5/1,18:54:00,18-11.8200N,119-47.4000E,228,30.902
5484,2013/5/1,18:55:00,18-11.6600N,119-47.2100E,228,30.904
5485,2013/5/1,18:56:00,18-11.5100N,119-47.0300E,228,30.903
5486,2013/5/1,18:57:00,18-11.3500N,119-46.8500E,228,30.905
5487,2013/5/1,18:58:00,18-11.2200N,119-46.6900E,228,30.91
5488,2013/5/1,18:59:00,18-11.0600N,119-46.5100E,228,30.911
5489,2013/5/1,19:00:00,18-10.9100N,119-46.3200E,228,30.905
5490,2013/5/1,19:01:00,18-10.7600N,119-46.1400E,228,30.886
5491,2013/5/1,19:02:00,18-10.6000N,119-45.9600E,228,30.867
5492,2013/5/1,19:03:00,18-10.4500N,119-45.7800E,228,30.865
5493,2013/5/1,19:04:00,18-10.3000N,119-45.6000E,227,30.874
5494,2013/5/1,19:05:00,18-10.1400N,119-45.4200E,228,30.881
5495,2013/5/1,19:06:00,18-09.9900N,119-45.2400E,229,30.881
5496,2013/5/1,19:07:00,18-09.8400N,119-45.0500E,229,30.872
5497,2013/5/1,19:08:00,18-09.6800N,119-44.8700E,227,30.869
5498,2013/5/1,19:09:00,18-09.5300N,119-44.6800E,228,30.872
5499,2013/5/1,19:10:00,18-09.3700N,119-44.4900E,228,30.877
5500,2013/5/1,19:11:00,18-09.2000N,119-44.2900E,228,30.89
5501,2013/5/1,19:12:00,18-09.0400N,119-44.1000E,228,30.91
5502,2013/5/1,19:13:00,18-08.9100N,119-43.9400E,228,30.923
5503,2013/5/1,19:14:00,18-08.7400N,119-43.7300E,229,30.923
5504,2013/5/1,19:15:00,18-08.5900N,119-43.5400E,229,30.914
5505,2013/5/1,19:16:00,18-08.4400N,119-43.3600E,229,30.909
5506,2013/5/1,19:17:00,18-08.2900N,119-43.1700E,229,30.908
5507,2013/5/1,19:18:00,18-08.1500N,119-42.9800E,232,30.911
5508,2013/5/1,19:19:00,18-08.0100N,119-42.7900E,232,30.921
5509,2013/5/1,19:20:00,18-07.8700N,119-42.6100E,230,30.923
5510,2013/5/1,19:21:00,18-07.7200N,119-42.4200E,231,30.92
5511,2013/5/1,19:22:00,18-07.5800N,119-42.2300E,230,30.921
5512,2013/5/1,19:23:00,18-07.4400N,119-42.0500E,230,30.925
5513,2013/5/1,19:24:00,18-07.2900N,119-41.8600E,230,30.936
5514,2013/5/1,19:25:00,18-07.1500N,119-41.6800E,232,30.95
5515,2013/5/1,19:26:00,18-07.0100N,119-41.4900E,230,30.964
5516,2013/5/1,19:27:00,18-06.8700N,119-41.3200E,230,30.975
5517,2013/5/1,19:28:00,18-06.7300N,119-41.1300E,231,30.988
5518,2013/5/1,19:29:00,18-06.5900N,119-40.9500E,231,31
5519,2013/5/1,19:30:00,18-06.4500N,119-40.7600E,231,31.012
5520,2013/5/1,19:31:00,18-06.3300N,119-40.6100E,232,31.025
5521,2013/5/1,19:32:00,18-06.1900N,119-40.4200E,232,31.036
5522,2013/5/1,19:33:00,18-06.0500N,119-40.2400E,231,31.038
5523,2013/5/1,19:34:00,18-05.9200N,119-40.0500E,232,31.048
5524,2013/5/1,19:35:00,18-05.7800N,119-39.8700E,231,31.07
5525,2013/5/1,19:36:00,18-05.6400N,119-39.6800E,232,31.086
5526,2013/5/1,19:37:00,18-05.5100N,119-39.5000E,232,31.09
5527,2013/5/1,19:38:00,18-05.3700N,119-39.3200E,231,31.087
5528,2013/5/1,19:39:00,18-05.2300N,119-39.1300E,232,31.076
5529,2013/5/1,19:40:00,18-05.1000N,119-38.9500E,232,31.071
5530,2013/5/1,19:41:00,18-04.9700N,119-38.7700E,231,31.067
5531,2013/5/1,19:42:00,18-04.8300N,119-38.5900E,233,31.061
5532,2013/5/1,19:43:00,18-04.7000N,119-38.4100E,230,31.056
5533,2013/5/1,19:44:00,18-04.5600N,119-38.2300E,230,31.05
5534,2013/5/1,19:45:00,18-04.4200N,119-38.0500E,231,31.041
5535,2013/5/1,19:46:00,18-04.2900N,119-37.8700E,230,31.036
5536,2013/5/1,19:47:00,18-04.1500N,119-37.6900E,232,31.028
5537,2013/5/1,19:48:00,18-04.0100N,119-37.5100E,232,31.018
5538,2013/5/1,19:49:00,18-03.8800N,119-37.3300E,232,31.01
5539,2013/5/1,19:50:00,18-03.7400N,119-37.1400E,231,31.006
5540,2013/5/1,19:51:00,18-03.6100N,119-36.9600E,232,31.007
5541,2013/5/1,19:52:00,18-03.4700N,119-36.7700E,232,31.004
5542,2013/5/1,19:53:00,18-03.3400N,119-36.5900E,232,31.004
5543,2013/5/1,19:54:00,18-03.2000N,119-36.4000E,232,31.01
5544,2013/5/1,19:55:00,18-03.0600N,119-36.2200E,232,31.015
5545,2013/5/1,19:56:00,18-02.9300N,119-36.0300E,232,31.024
5546,2013/5/1,19:57:00,18-02.7900N,119-35.8400E,233,31.029
5547,2013/5/1,19:58:00,18-02.6500N,119-35.6500E,231,31.022
5548,2013/5/1,19:59:00,18-02.5000N,119-35.4800E,229,31.016
5549,2013/5/1,20:00:00,18-02.3600N,119-35.3000E,229,31.005
5550,2013/5/1,20:01:00,18-02.2100N,119-35.1200E,228,30.998
5551,2013/5/1,20:02:00,18-02.0600N,119-34.9500E,227,30.994
5552,2013/5/1,20:03:00,18-01.9100N,119-34.7800E,226,30.995
5553,2013/5/1,20:04:00,18-01.7600N,119-34.6100E,226,30.994
5554,2013/5/1,20:05:00,18-01.6100N,119-34.4400E,226,30.988
5555,2013/5/1,20:06:00,18-01.4500N,119-34.2700E,226,30.978
5556,2013/5/1,20:07:00,18-01.3000N,119-34.1100E,226,30.965
5557,2013/5/1,20:08:00,18-01.1400N,119-33.9400E,225,30.954
5558,2013/5/1,20:09:00,18-00.9900N,119-33.7700E,224,30.943
5559,2013/5/1,20:10:00,18-00.8300N,119-33.6000E,227,30.932
5560,2013/5/1,20:11:00,18-00.6800N,119-33.4300E,226,30.926
5561,2013/5/1,20:12:00,18-00.5300N,119-33.2600E,227,30.924
5562,2013/5/1,20:13:00,18-00.3800N,119-33.0900E,226,30.925
5563,2013/5/1,20:14:00,18-00.2200N,119-32.9300E,226,30.928
5564,2013/5/1,20:15:00,18-00.0700N,119-32.7600E,226,30.929
5565,2013/5/1,20:16:00,17-59.9100N,119-32.5900E,225,30.925
5566,2013/5/1,20:17:00,17-59.7600N,119-32.4200E,227,30.928
5567,2013/5/1,20:18:00,17-59.6000N,119-32.2500E,226,30.934
5568,2013/5/1,20:19:00,17-59.4400N,119-32.0700E,227,30.94
5569,2013/5/1,20:20:00,17-59.2900N,119-31.9000E,225,30.939
5570,2013/5/1,20:21:00,17-59.1300N,119-31.7300E,226,30.94
5571,2013/5/1,20:22:00,17-58.9800N,119-31.5600E,226,30.939
5572,2013/5/1,20:23:00,17-58.8200N,119-31.3900E,225,30.937
5573,2013/5/1,20:24:00,17-58.6600N,119-31.2200E,225,30.938
5574,2013/5/1,20:25:00,17-58.5100N,119-31.0600E,225,30.937
5575,2013/5/1,20:26:00,17-58.3500N,119-30.8900E,227,30.937
5576,2013/5/1,20:27:00,17-58.2000N,119-30.7100E,228,30.945
5577,2013/5/1,20:28:00,17-58.0500N,119-30.5400E,228,30.959
5578,2013/5/1,20:29:00,17-57.9000N,119-30.3700E,228,30.967
5579,2013/5/1,20:30:00,17-57.7600N,119-30.2000E,228,30.981
5580,2013/5/1,20:31:00,17-57.6100N,119-30.0200E,227,30.992
5581,2013/5/1,20:32:00,17-57.4600N,119-29.8500E,228,30.993
5582,2013/5/1,20:33:00,17-57.3100N,119-29.6700E,228,30.985
5583,2013/5/1,20:34:00,17-57.1600N,119-29.5000E,229,30.986
5584,2013/5/1,20:35:00,17-57.0000N,119-29.3000E,229,30.996
5585,2013/5/1,20:36:00,17-56.8500N,119-29.1100E,229,31
5586,2013/5/1,20:37:00,17-56.7300N,119-28.9600E,228,31.007
5587,2013/5/1,20:38:00,17-56.5700N,119-28.7800E,229,31.015
5588,2013/5/1,20:39:00,17-56.4300N,119-28.5900E,229,31.022
5589,2013/5/1,20:40:00,17-56.2800N,119-28.4100E,230,31.024
5590,2013/5/1,20:41:00,17-56.1200N,119-28.2200E,229,31.006
5591,2013/5/1,20:42:00,17-55.9800N,119-28.0500E,228,30.982
5592,2013/5/1,20:43:00,17-55.8300N,119-27.8700E,228,30.958
5593,2013/5/1,20:44:00,17-55.6800N,119-27.6800E,230,30.894
5594,2013/5/1,20:45:00,17-55.5400N,119-27.4900E,231,30.878
5595,2013/5/1,20:46:00,17-55.3900N,119-27.3000E,229,30.861
5596,2013/5/1,20:47:00,17-55.2400N,119-27.1200E,229,30.828
5597,2013/5/1,20:48:00,17-55.0900N,119-26.9300E,229,30.793
5598,2013/5/1,20:49:00,17-54.9400N,119-26.7500E,229,30.738
5599,2013/5/1,20:50:00,17-54.7900N,119-26.5600E,229,30.662
5600,2013/5/1,20:51:00,17-54.6400N,119-26.3800E,229,30.531
5601,2013/5/1,20:52:00,17-54.4900N,119-26.1900E,229,30.389
5602,2013/5/1,20:53:00,17-54.3400N,119-26.0100E,229,30.189
5603,2013/5/1,20:54:00,17-54.1900N,119-25.8300E,228,29.969
5604,2013/5/1,20:55:00,17-54.0400N,119-25.6500E,228,29.831
5605,2013/5/1,20:56:00,17-53.8900N,119-25.4700E,228,29.782
5606,2013/5/1,20:57:00,17-53.7400N,119-25.2900E,228,29.744
5607,2013/5/1,20:58:00,17-53.5900N,119-25.1200E,227,29.699
5608,2013/5/1,20:59:00,17-53.4500N,119-24.9400E,230,29.657
5609,2013/5/1,21:00:00,17-53.3000N,119-24.7700E,229,29.633
5610,2013/5/1,21:01:00,17-53.1600N,119-24.5900E,230,29.614
5611,2013/5/1,21:02:00,17-53.0100N,119-24.4100E,229,29.593
5612,2013/5/1,21:03:00,17-52.8700N,119-24.2300E,228,29.597
5613,2013/5/1,21:04:00,17-52.7200N,119-24.0500E,229,29.6
5614,2013/5/1,21:05:00,17-52.5700N,119-23.8700E,229,29.604
5615,2013/5/1,21:06:00,17-52.4200N,119-23.6900E,227,29.585
5616,2013/5/1,21:07:00,17-52.2700N,119-23.5200E,227,29.605
5617,2013/5/1,21:08:00,17-52.1200N,119-23.3500E,226,29.623
5618,2013/5/1,21:09:00,17-51.9700N,119-23.1700E,228,29.645
5619,2013/5/1,21:10:00,17-51.8200N,119-23.0000E,228,29.665
5620,2013/5/1,21:11:00,17-51.6700N,119-22.8200E,228,29.691
5621,2013/5/1,21:12:00,17-51.5200N,119-22.6400E,228,29.705
5622,2013/5/1,21:13:00,17-51.3600N,119-22.4600E,228,29.713
5623,2013/5/1,21:14:00,17-51.2100N,119-22.2900E,226,29.709
5624,2013/5/1,21:15:00,17-51.0600N,119-22.1100E,228,29.703
5625,2013/5/1,21:16:00,17-50.9100N,119-21.9300E,229,29.676
5626,2013/5/1,21:17:00,17-50.7600N,119-21.7600E,226,29.638
5627,2013/5/1,21:18:00,17-50.6100N,119-21.5900E,228,29.633
5628,2013/5/1,21:19:00,17-50.4600N,119-21.4100E,228,29.643
5629,2013/5/1,21:20:00,17-50.3100N,119-21.2300E,228,29.65
5630,2013/5/1,21:21:00,17-50.1700N,119-21.0600E,228,29.662
5631,2013/5/1,21:22:00,17-50.0200N,119-20.8900E,227,29.682
5632,2013/5/1,21:23:00,17-49.8800N,119-20.7200E,228,29.702
5633,2013/5/1,21:24:00,17-49.7300N,119-20.5500E,227,29.717
5634,2013/5/1,21:25:00,17-49.5900N,119-20.3800E,229,29.745
5635,2013/5/1,21:26:00,17-49.4500N,119-20.2100E,228,29.76
5636,2013/5/1,21:27:00,17-49.3000N,119-20.0400E,228,29.761
5637,2013/5/1,21:28:00,17-49.1600N,119-19.8700E,228,29.751
5638,2013/5/1,21:29:00,17-49.0100N,119-19.7100E,225,29.74
5639,2013/5/1,21:30:00,17-48.8600N,119-19.5500E,227,29.708
5640,2013/5/1,21:31:00,17-48.7300N,119-19.3700E,230,29.673
5641,2013/5/1,21:32:00,17-48.5900N,119-19.2000E,230,29.646
5642,2013/5/1,21:33:00,17-48.4500N,119-19.0200E,229,29.622
5643,2013/5/1,21:34:00,17-48.3100N,119-18.8500E,230,29.589
5644,2013/5/1,21:35:00,17-48.1700N,119-18.6700E,230,29.551
5645,2013/5/1,21:36:00,17-48.0300N,119-18.5000E,229,29.548
5646,2013/5/1,21:37:00,17-47.8900N,119-18.3200E,231,29.543
5647,2013/5/1,21:38:00,17-47.7500N,119-18.1500E,228,29.563
5648,2013/5/1,21:39:00,17-47.5900N,119-17.9400E,230,29.553
5649,2013/5/1,21:40:00,17-47.4500N,119-17.7700E,230,29.546
5650,2013/5/1,21:41:00,17-47.3000N,119-17.5900E,228,29.532
5651,2013/5/1,21:42:00,17-47.1600N,119-17.4200E,228,29.508
5652,2013/5/1,21:43:00,17-47.0300N,119-17.2600E,229,29.496
5653,2013/5/1,21:44:00,17-46.8800N,119-17.0700E,230,29.47
5654,2013/5/1,21:45:00,17-46.7400N,119-16.8900E,230,29.437
5655,2013/5/1,21:46:00,17-46.6000N,119-16.7200E,229,29.406
5656,2013/5/1,21:47:00,17-46.4600N,119-16.5400E,229,29.384
5657,2013/5/1,21:48:00,17-46.3200N,119-16.3700E,229,29.371
5658,2013/5/1,21:49:00,17-46.1700N,119-16.2000E,228,29.355
5659,2013/5/1,21:50:00,17-46.0300N,119-16.0200E,229,29.337
5660,2013/5/1,21:51:00,17-45.8800N,119-15.8500E,229,29.312
5661,2013/5/1,21:52:00,17-45.7400N,119-15.6800E,228,29.29
5662,2013/5/1,21:53:00,17-45.6000N,119-15.5000E,230,29.276
5663,2013/5/1,21:54:00,17-45.4800N,119-15.3600E,229,29.289
5664,2013/5/1,21:55:00,17-45.3300N,119-15.1800E,229,29.322
5665,2013/5/1,21:56:00,17-45.1800N,119-14.9900E,230,29.321
5666,2013/5/1,21:57:00,17-45.0300N,119-14.8100E,230,29.333
5667,2013/5/1,21:58:00,17-44.8900N,119-14.6300E,229,29.352
5668,2013/5/1,21:59:00,17-44.7600N,119-14.4800E,228,29.401
5669,2013/5/1,22:00:00,17-44.6200N,119-14.3000E,229,29.472
5670,2013/5/1,22:01:00,17-44.4600N,119-14.1000E,230,29.52
5671,2013/5/1,22:02:00,17-44.3200N,119-13.9300E,229,29.529
5672,2013/5/1,22:03:00,17-44.1700N,119-13.7500E,229,29.525
5673,2013/5/1,22:04:00,17-44.0500N,119-13.6000E,229,29.544
5674,2013/5/1,22:05:00,17-43.9100N,119-13.4300E,229,29.562
5675,2013/5/1,22:06:00,17-43.7700N,119-13.2600E,229,29.579
5676,2013/5/1,22:07:00,17-43.6200N,119-13.0800E,229,29.611
5677,2013/5/1,22:08:00,17-43.4800N,119-12.9100E,227,29.641
5678,2013/5/1,22:09:00,17-43.3300N,119-12.7400E,228,29.66
5679,2013/5/1,22:10:00,17-43.1900N,119-12.5600E,229,29.668
5680,2013/5/1,22:11:00,17-43.0400N,119-12.3800E,228,29.67
5681,2013/5/1,22:12:00,17-42.9000N,119-12.2100E,227,29.672
5682,2013/5/1,22:13:00,17-42.7500N,119-12.0400E,228,29.674
5683,2013/5/1,22:14:00,17-42.6100N,119-11.8600E,230,29.644
5684,2013/5/1,22:15:00,17-42.4700N,119-11.6900E,230,29.616
5685,2013/5/1,22:16:00,17-42.3300N,119-11.5100E,229,29.603
5686,2013/5/1,22:17:00,17-42.1800N,119-11.3300E,229,29.61
5687,2013/5/1,22:18:00,17-42.0400N,119-11.1600E,230,29.617
5688,2013/5/1,22:19:00,17-41.9000N,119-10.9800E,229,29.604
5689,2013/5/1,22:20:00,17-41.7500N,119-10.8000E,229,29.588
5690,2013/5/1,22:21:00,17-41.6100N,119-10.6300E,228,29.597
5691,2013/5/1,22:22:00,17-41.4600N,119-10.4600E,228,29.598
5692,2013/5/1,22:23:00,17-41.3200N,119-10.2900E,229,29.605
5693,2013/5/1,22:24:00,17-41.1800N,119-10.1200E,228,29.615
5694,2013/5/1,22:25:00,17-41.0400N,119-09.9500E,228,29.601
5695,2013/5/1,22:26:00,17-40.8800N,119-09.7600E,229,29.568
5696,2013/5/1,22:27:00,17-40.7500N,119-09.6000E,228,29.542
5697,2013/5/1,22:28:00,17-40.6000N,119-09.4300E,228,29.545
5698,2013/5/1,22:29:00,17-40.4600N,119-09.2600E,230,29.556
5699,2013/5/1,22:30:00,17-40.3100N,119-09.0800E,228,29.577
5700,2013/5/1,22:31:00,17-40.1700N,119-08.9100E,227,29.59
5701,2013/5/1,22:32:00,17-40.0200N,119-08.7400E,227,29.597
5702,2013/5/1,22:33:00,17-39.8800N,119-08.5600E,229,29.595
5703,2013/5/1,22:34:00,17-39.7300N,119-08.3900E,228,29.575
5704,2013/5/1,22:35:00,17-39.5900N,119-08.2200E,228,29.548
5705,2013/5/1,22:36:00,17-39.4400N,119-08.0500E,227,29.544
5706,2013/5/1,22:37:00,17-39.2900N,119-07.8800E,226,29.545
5707,2013/5/1,22:38:00,17-39.1400N,119-07.7100E,228,29.563
5708,2013/5/1,22:39:00,17-39.0000N,119-07.5400E,227,29.584
5709,2013/5/1,22:40:00,17-38.8500N,119-07.3700E,227,29.588
5710,2013/5/1,22:41:00,17-38.7000N,119-07.2000E,227,29.59
5711,2013/5/1,22:42:00,17-38.5400N,119-07.0000E,228,29.606
5712,2013/5/1,22:43:00,17-38.3900N,119-06.8300E,227,29.633
5713,2013/5/1,22:44:00,17-38.2400N,119-06.6600E,227,29.643
5714,2013/5/1,22:45:00,17-38.0900N,119-06.5000E,225,29.646
5715,2013/5/1,22:46:00,17-37.9500N,119-06.3400E,228,29.652
5716,2013/5/1,22:47:00,17-37.8200N,119-06.1900E,227,29.659
5717,2013/5/1,22:48:00,17-37.6600N,119-06.0000E,228,29.667
5718,2013/5/1,22:49:00,17-37.5100N,119-05.8300E,227,29.677
5719,2013/5/1,22:50:00,17-37.3800N,119-05.6900E,226,29.675
5720,2013/5/1,22:51:00,17-37.2300N,119-05.5200E,227,29.646
5721,2013/5/1,22:52:00,17-37.0800N,119-05.3500E,226,29.614
5722,2013/5/1,22:53:00,17-36.9300N,119-05.1800E,228,29.586
5723,2013/5/1,22:54:00,17-36.7900N,119-05.0000E,229,29.513
5724,2013/5/1,22:55:00,17-36.6400N,119-04.8300E,226,29.462
5725,2013/5/1,22:56:00,17-36.5000N,119-04.6600E,229,29.445
5726,2013/5/1,22:57:00,17-36.3600N,119-04.4900E,229,29.451
5727,2013/5/1,22:58:00,17-36.2200N,119-04.3200E,229,29.461
5728,2013/5/1,22:59:00,17-36.0700N,119-04.1500E,228,29.463
5729,2013/5/1,23:00:00,17-35.9300N,119-03.9800E,230,29.454
5730,2013/5/1,23:01:00,17-35.8000N,119-03.8000E,229,29.443
5731,2013/5/1,23:02:00,17-35.6600N,119-03.6300E,228,29.446
5732,2013/5/1,23:03:00,17-35.5200N,119-03.4600E,229,29.44
5733,2013/5/1,23:04:00,17-35.3800N,119-03.2900E,230,29.423
5734,2013/5/1,23:05:00,17-35.2400N,119-03.1200E,230,29.408
5735,2013/5/1,23:06:00,17-35.1000N,119-02.9400E,229,29.392
5736,2013/5/1,23:07:00,17-34.9600N,119-02.7700E,228,29.362
5737,2013/5/1,23:08:00,17-34.8200N,119-02.6100E,229,29.352
5738,2013/5/1,23:09:00,17-34.6900N,119-02.4400E,229,29.357
5739,2013/5/1,23:10:00,17-34.5500N,119-02.2700E,230,29.369
5740,2013/5/1,23:11:00,17-34.4100N,119-02.1000E,229,29.382
5741,2013/5/1,23:12:00,17-34.2800N,119-01.9300E,230,29.389
5742,2013/5/1,23:13:00,17-34.1400N,119-01.7700E,229,29.403
5743,2013/5/1,23:14:00,17-34.0100N,119-01.6000E,230,29.42
5744,2013/5/1,23:15:00,17-33.8700N,119-01.4300E,230,29.438
5745,2013/5/1,23:16:00,17-33.7400N,119-01.2600E,230,29.482
5746,2013/5/1,23:17:00,17-33.5800N,119-01.0600E,229,29.54
5747,2013/5/1,23:18:00,17-33.4400N,119-00.8900E,230,29.606
5748,2013/5/1,23:19:00,17-33.3200N,119-00.7500E,229,29.657
5749,2013/5/1,23:20:00,17-33.1800N,119-00.5700E,229,29.702
5750,2013/5/1,23:21:00,17-33.0500N,119-00.4100E,229,29.749
5751,2013/5/1,23:22:00,17-32.9000N,119-00.2200E,230,29.791
5752,2013/5/1,23:23:00,17-32.7600N,119-00.0500E,230,29.828
5753,2013/5/1,23:24:00,17-32.6400N,118-59.9100E,230,29.85
5754,2013/5/1,23:25:00,17-32.4900N,118-59.7100E,230,29.856
5755,2013/5/1,23:26:00,17-32.3700N,118-59.5600E,229,29.833
5756,2013/5/1,23:27:00,17-32.2400N,118-59.4000E,230,29.831
5757,2013/5/1,23:28:00,17-32.1100N,118-59.2300E,229,29.83
5758,2013/5/1,23:29:00,17-31.9700N,118-59.0600E,229,29.829
5759,2013/5/1,23:30:00,17-31.8400N,118-58.9000E,229,29.81
5760,2013/5/1,23:31:00,17-31.7000N,118-58.7300E,229,29.785
5761,2013/5/1,23:32:00,17-31.5700N,118-58.5600E,229,29.77
5762,2013/5/1,23:33:00,17-31.4300N,118-58.3900E,229,29.778
5763,2013/5/1,23:34:00,17-31.3000N,118-58.2300E,229,29.796
5764,2013/5/1,23:35:00,17-31.1600N,118-58.0600E,229,29.81
5765,2013/5/1,23:36:00,17-31.0200N,118-57.8900E,229,29.813
5766,2013/5/1,23:37:00,17-30.8800N,118-57.7200E,229,29.804
5767,2013/5/1,23:38:00,17-30.7400N,118-57.5500E,229,29.798
5768,2013/5/1,23:39:00,17-30.6100N,118-57.3800E,228,29.788
5769,2013/5/1,23:40:00,17-30.4700N,118-57.2200E,229,29.793
5770,2013/5/1,23:41:00,17-30.3300N,118-57.0500E,229,29.809
5771,2013/5/1,23:42:00,17-30.1900N,118-56.8800E,229,29.827
5772,2013/5/1,23:43:00,17-30.0500N,118-56.7100E,229,29.841
5773,2013/5/1,23:44:00,17-29.9200N,118-56.5500E,230,29.843
5774,2013/5/1,23:45:00,17-29.7800N,118-56.3800E,228,29.837
5775,2013/5/1,23:46:00,17-29.6500N,118-56.2100E,230,29.818
5776,2013/5/1,23:47:00,17-29.5100N,118-56.0400E,230,29.796
5777,2013/5/1,23:48:00,17-29.3800N,118-55.8700E,229,29.786
5778,2013/5/1,23:49:00,17-29.2400N,118-55.7000E,229,29.782
5779,2013/5/1,23:50:00,17-29.1000N,118-55.5300E,230,29.782
5780,2013/5/1,23:51:00,17-28.9600N,118-55.3600E,230,29.782
5781,2013/5/1,23:52:00,17-28.8200N,118-55.1800E,229,29.78
5782,2013/5/1,23:53:00,17-28.6800N,118-55.0100E,228,29.78
5783,2013/5/1,23:54:00,17-28.5400N,118-54.8400E,228,29.781
5784,2013/5/1,23:55:00,17-28.4000N,118-54.6700E,229,29.789
5785,2013/5/1,23:56:00,17-28.2500N,118-54.5000E,228,29.796
5786,2013/5/1,23:57:00,17-28.1100N,118-54.3200E,229,29.792
5787,2013/5/1,23:58:00,17-27.9700N,118-54.1500E,228,29.788
5788,2013/5/1,23:59:00,17-27.8300N,118-53.9800E,229,29.779
5789,2013/5/2,0:00:00,17-27.6900N,118-53.8000E,229,29.77
5790,2013/5/2,0:01:00,17-27.5400N,118-53.6300E,228,29.768
5791,2013/5/2,0:02:00,17-27.3900N,118-53.4600E,227,29.773
5792,2013/5/2,0:03:00,17-27.2500N,118-53.2900E,228,29.779
5793,2013/5/2,0:04:00,17-27.1100N,118-53.1200E,228,29.791
5794,2013/5/2,0:05:00,17-26.9600N,118-52.9500E,228,29.806
5795,2013/5/2,0:06:00,17-26.8100N,118-52.7700E,228,29.82
5796,2013/5/2,0:07:00,17-26.6700N,118-52.6000E,227,29.822
5797,2013/5/2,0:08:00,17-26.5200N,118-52.4300E,228,29.827
5798,2013/5/2,0:09:00,17-26.3800N,118-52.2500E,229,29.84
5799,2013/5/2,0:10:00,17-26.2300N,118-52.0800E,229,29.849
5800,2013/5/2,0:11:00,17-26.0900N,118-51.9000E,229,29.851
5801,2013/5/2,0:12:00,17-25.9500N,118-51.7300E,231,29.857
5802,2013/5/2,0:13:00,17-25.8100N,118-51.5500E,230,29.87
5803,2013/5/2,0:14:00,17-25.6600N,118-51.3700E,230,29.879
5804,2013/5/2,0:15:00,17-25.5200N,118-51.1900E,230,29.885
5805,2013/5/2,0:16:00,17-25.3700N,118-51.0000E,230,29.896
5806,2013/5/2,0:17:00,17-25.2300N,118-50.8200E,230,29.905
5807,2013/5/2,0:18:00,17-25.0800N,118-50.6400E,229,29.905
5808,2013/5/2,0:19:00,17-24.9300N,118-50.4600E,229,29.898
5809,2013/5/2,0:20:00,17-24.7800N,118-50.2800E,230,29.897
5810,2013/5/2,0:21:00,17-24.6400N,118-50.1000E,229,29.895
5811,2013/5/2,0:22:00,17-24.4900N,118-49.9300E,228,29.899
5812,2013/5/2,0:23:00,17-24.3400N,118-49.7500E,230,29.908
5813,2013/5/2,0:24:00,17-24.2000N,118-49.5700E,229,29.915